Weather History for KSEG - November, 2012

Change the Weather History Date:

Saturday, November 24, 2012

  Actual Average (KIPT) Record (KIPT)
Temperature  
Mean Temperature 36 °F 39 °F  
Max Temperature 39 °F 46 °F 69 °F (2014)
Min Temperature 34 °F 31 °F 15 °F (1914)
Degree Days  
Heating Degree Days 28 26  
Month to date heating degree days 535  
Since 1 July heating degree days 1078  
Cooling Degree Days 0 0  
Month to date cooling degree days 0  
Year to date cooling degree days 702  
Moisture  
Dew Point 21 °F    
Average Humidity 52    
Maximum Humidity 59    
Minimum Humidity 45    
Precipitation  
Precipitation 0.00 in 0.13 in 1.96 in (1901)
Month to date precipitation 2.95  
Year to date precipitation 37.56  
Snow  
Snow 0.00 in - - ()
Month to date snowfall  
Since 1 July snowfall  
Since 1 September snowfall  
Snow Depth -    
Sea Level Pressure  
Sea Level Pressure 29.89 in    
Wind  
Wind Speed 11 mph (WNW)    
Max Wind Speed 18 mph    
Max Gust Speed 32 mph    
Visibility 10 miles    
Events Snow    
T = Trace of Precipitation, MM = Missing Value Source: NWS Daily Summary

Daily Weather History Graph

Daily Weather History Graph

Search for Another Location

Airport or City:

Trip Planner

Search our weather history database for the weather conditions in past years. The results will help you decide how hot, cold, wet, or windy it might be!

Date:

Astronomy

Nov. 24, 2012 Rise Set
Actual Time 7:05 AM EST 4:42 PM EST
Civil Twilight 6:35 AM EST 5:12 PM EST
Nautical Twilight 6:01 AM EST 5:46 PM EST
Astronomical Twilight 5:28 AM EST 6:19 PM EST
Moon 2:27 PM EST (11/24) 3:19 AM EST (11/24)
Length of Visible Light 10h 37m
Length of Day
9h 37m
Waxing Gibbous, 87% of the Moon is Illuminated
Nov 24
Waxing Gibbous
Nov 28
Full
Dec 6
Last Quarter
Dec 13
New
Dec 20
First Quarter

Hourly Weather History & Observations

Time (EST) Temp. Windchill Dew Point Humidity Pressure Visibility Wind Dir Wind Speed Gust Speed Precip Events Conditions
12:53 AM 37.9 °F 32.7 °F 23.0 °F 55% 29.85 in 10.0 mi West 6.9 mph 19.6 mph N/A   Overcast
1:53 AM 37.9 °F 29.6 °F 21.9 °F 53% 29.86 in 9.0 mi WNW 13.8 mph 19.6 mph 0.00 in   Overcast
2:53 AM 36.0 °F 29.6 °F 21.9 °F 57% 29.86 in 10.0 mi West 8.1 mph 16.1 mph 0.00 in   Overcast
3:53 AM 36.0 °F 29.0 °F 21.9 °F 57% 29.86 in 10.0 mi West 9.2 mph 21.9 mph N/A   Overcast
4:53 AM 36.0 °F 29.6 °F 21.9 °F 57% 29.86 in 10.0 mi West 8.1 mph 18.4 mph N/A   Overcast
5:53 AM 36.0 °F 29.0 °F 23.0 °F 59% 29.88 in 10.0 mi West 9.2 mph 19.6 mph 0.00 in Snow Light Snow
6:53 AM 36.0 °F 28.5 °F 23.0 °F 59% 29.88 in 10.0 mi West 10.4 mph 17.3 mph 0.00 in   Overcast
7:53 AM 36.0 °F 28.0 °F 23.0 °F 59% 29.88 in 10.0 mi West 11.5 mph 19.6 mph 0.00 in   Mostly Cloudy
8:53 AM 37.0 °F 30.4 °F 21.9 °F 54% 29.89 in 10.0 mi West 9.2 mph 16.1 mph N/A   Mostly Cloudy
9:53 AM 37.9 °F 28.2 °F 21.9 °F 53% 29.90 in 9.0 mi West 18.4 mph 28.8 mph 0.00 in Snow Light Snow
10:53 AM 39.9 °F 33.4 °F 21.0 °F 47% 29.88 in 10.0 mi WNW 10.4 mph 19.6 mph 0.00 in   Partly Cloudy
11:53 AM 39.0 °F 30.3 °F 19.9 °F 46% 29.86 in 10.0 mi West 16.1 mph 32.2 mph N/A   Mostly Cloudy
12:53 PM 39.9 °F 30.8 °F 19.9 °F 45% 29.86 in 10.0 mi WNW 18.4 mph 25.3 mph N/A   Overcast
1:53 PM 39.0 °F 32.3 °F 19.9 °F 46% 29.86 in 10.0 mi WNW 10.4 mph 23.0 mph N/A   Overcast
2:53 PM 39.0 °F 29.6 °F 19.0 °F 45% 29.87 in 10.0 mi WNW 18.4 mph 27.6 mph N/A   Overcast
3:53 PM 39.0 °F 31.4 °F 19.9 °F 46% 29.89 in 10.0 mi WNW 12.7 mph 20.7 mph N/A   Overcast
4:53 PM 37.0 °F 31.6 °F 19.9 °F 50% 29.90 in 9.0 mi Variable 6.9 mph 24.2 mph 0.00 in Snow Light Snow
5:53 PM 37.0 °F 28.5 °F 19.9 °F 50% 29.92 in 9.0 mi WNW 13.8 mph 21.9 mph 0.00 in Snow Light Snow
6:53 PM 36.0 °F 29.6 °F 19.9 °F 52% 29.93 in 9.0 mi West 8.1 mph 21.9 mph 0.00 in Snow Light Snow
7:53 PM 36.0 °F 29.0 °F 19.0 °F 50% 29.94 in 9.0 mi WNW 9.2 mph 20.7 mph 0.00 in Snow Light Snow
8:53 PM 35.1 °F 26.9 °F 19.9 °F 54% 29.95 in 9.0 mi WNW 11.5 mph 17.3 mph 0.00 in Snow Light Snow
9:53 PM 34.0 °F 25.5 °F 19.9 °F 56% 29.96 in 9.0 mi WNW 11.5 mph - 0.00 in   Clear
10:53 PM 34.0 °F 26.0 °F 19.9 °F 56% 29.96 in 9.0 mi West 10.4 mph 19.6 mph 0.00 in Snow Light Snow
11:53 PM 35.1 °F 29.3 °F 19.9 °F 54% 29.97 in 10.0 mi WNW 6.9 mph - 0.00 in   Overcast